When you browse on this site, cookies collect data to enhance your experience and personalize the content and advertising you see.
Visit our Privacy Policy to learn more. By continuing to use the site, you agree to this use of cookies and data.
  • En España
  • Lista de países
  • Para 7 días
  • Temperatura del agua
  • El tiempo en el mapa
  • Informadores
  • user-avatar
    Iniciar sesión

    Tiempo cada hora Barnaul

    Hoy, 31 Mayo, Domingo

    Tiempo Temperatura Precipitaciones Viento Presión Humedad
    00:00 +12°C° 0 mm 2 mps 739 mmHg 85%
    01:00 +12°C° 0 mm 2 mps 740 mmHg 83%
    02:00 +10°C° 0 mm 2 mps 740 mmHg 82%
    03:00 +10°C° 0 mm 2 mps 740 mmHg 81%
    04:00 +11°C° 0 mm 3 mps 740 mmHg 79%
    05:00 +12°C° 0 mm 4 mps 740 mmHg 77%
    06:00 +13°C° 0 mm 5 mps 740 mmHg 75%
    07:00 +14°C° 0 mm 5 mps 740 mmHg 70%
    08:00 +16°C° 0 mm 6 mps 740 mmHg 65%
    09:00 +18°C° 0 mm 7 mps 740 mmHg 60%
    10:00 +20°C° 0 mm 7 mps 740 mmHg 57%
    11:00 +21°C° 0 mm 7 mps 740 mmHg 53%
    12:00 +22°C° 0 mm 7 mps 739 mmHg 50%
    13:00 +22°C° 0 mm 7 mps 739 mmHg 50%
    14:00 +22°C° 0 mm 7 mps 739 mmHg 51%
    15:00 +22°C° 0 mm 6 mps 739 mmHg 52%
    16:00 +22°C° 0 mm 5 mps 739 mmHg 54%
    17:00 +22°C° 0 mm 4 mps 739 mmHg 57%
    18:00 +22°C° 0 mm 3 mps 739 mmHg 59%
    19:00 +20°C° 0 mm 3 mps 739 mmHg 65%
    20:00 +18°C° 0 mm 2 mps 738 mmHg 71%
    21:00 +16°C° 0 mm 1 mps 738 mmHg 78%
    22:00 +16°C° 0 mm 1 mps 738 mmHg 78%
    23:00 +16°C° 0 mm 1 mps 738 mmHg 78%

    Mañana, 1 Junio, Lunes

    Tiempo Temperatura Precipitaciones Viento Presión Humedad
    00:00 +16°C° 0 mm 1 mps 738 mmHg 78%
    01:00 +15°C° 0.1 mm 1 mps 737 mmHg 78%
    02:00 +15°C° 0.1 mm 1 mps 737 mmHg 79%
    03:00 +15°C° 0.1 mm 1 mps 737 mmHg 80%
    04:00 +15°C° 1.4 mm 1 mps 736 mmHg 84%
    05:00 +15°C° 1.4 mm 1 mps 736 mmHg 89%
    06:00 +15°C° 1.4 mm 1 mps 736 mmHg 93%
    07:00 +16°C° 0 mm 2 mps 736 mmHg 87%
    08:00 +18°C° 0 mm 2 mps 735 mmHg 81%
    09:00 +20°C° 0 mm 3 mps 735 mmHg 75%
    10:00 +21°C° 0 mm 2 mps 735 mmHg 68%
    11:00 +24°C° 0 mm 2 mps 735 mmHg 60%
    12:00 +25°C° 0 mm 1 mps 736 mmHg 52%
    13:00 +25°C° 0 mm 3 mps 736 mmHg 56%
    14:00 +23°C° 0 mm 4 mps 736 mmHg 59%
    15:00 +23°C° 0 mm 5 mps 736 mmHg 63%
    16:00 +23°C° 0 mm 5 mps 736 mmHg 64%
    17:00 +22°C° 0 mm 4 mps 736 mmHg 66%
    18:00 +22°C° 0 mm 4 mps 736 mmHg 68%
    19:00 +20°C° 0 mm 3 mps 736 mmHg 74%
    20:00 +18°C° 0 mm 3 mps 737 mmHg 80%
    21:00 +17°C° 0 mm 2 mps 737 mmHg 86%
    22:00 +16°C° 0 mm 3 mps 736 mmHg 87%
    23:00 +16°C° 0 mm 3 mps 736 mmHg 89%

    Pasado mañana, 2 Junio, Martes

    Tiempo Temperatura Precipitaciones Viento Presión Humedad
    00:00 +16°C° 0 mm 3 mps 735 mmHg 90%
    01:00 +15°C° 0.4 mm 4 mps 735 mmHg 92%
    02:00 +15°C° 0.4 mm 4 mps 734 mmHg 94%
    03:00 +15°C° 0.4 mm 4 mps 734 mmHg 96%
    04:00 +17°C° 0 mm 4 mps 733 mmHg 93%
    05:00 +16°C° 0 mm 5 mps 733 mmHg 90%
    06:00 +17°C° 0 mm 5 mps 733 mmHg 88%
    07:00 +19°C° 0 mm 5 mps 734 mmHg 80%
    08:00 +20°C° 0 mm 6 mps 734 mmHg 72%
    09:00 +21°C° 0 mm 7 mps 735 mmHg 63%
    10:00 +21°C° 0 mm 7 mps 735 mmHg 58%
    11:00 +22°C° 0 mm 7 mps 735 mmHg 53%
    12:00 +23°C° 0 mm 7 mps 736 mmHg 48%
    13:00 +23°C° 0 mm 7 mps 736 mmHg 48%
    14:00 +23°C° 0 mm 7 mps 736 mmHg 47%
    15:00 +23°C° 0 mm 7 mps 737 mmHg 47%
    16:00 +23°C° 0 mm 7 mps 737 mmHg 50%
    17:00 +22°C° 0 mm 6 mps 737 mmHg 53%
    18:00 +21°C° 0 mm 6 mps 737 mmHg 56%
    19:00 +19°C° 0 mm 5 mps 738 mmHg 62%
    20:00 +17°C° 0 mm 4 mps 738 mmHg 68%
    21:00 +14°C° 0 mm 3 mps 739 mmHg 75%
    22:00 +13°C° 0 mm 3 mps 739 mmHg 76%
    23:00 +13°C° 0 mm 2 mps 739 mmHg 78%

    3 Junio, Miércoles

    Tiempo Temperatura Precipitaciones Viento Presión Humedad
    00:00 +12°C° 0 mm 1 mps 740 mmHg 80%
    01:00 +11°C° 0 mm 1 mps 740 mmHg 81%
    02:00 +11°C° 0 mm 1 mps 740 mmHg 83%
    03:00 +10°C° 0 mm 1 mps 740 mmHg 84%
    04:00 +11°C° 0 mm 1 mps 740 mmHg 82%
    05:00 +11°C° 0 mm 1 mps 741 mmHg 81%
    06:00 +12°C° 0 mm 1 mps 741 mmHg 79%
    07:00 +13°C° 0 mm 2 mps 741 mmHg 72%
    08:00 +14°C° 0 mm 2 mps 741 mmHg 65%
    09:00 +16°C° 0 mm 2 mps 742 mmHg 58%
    10:00 +16°C° 0 mm 2 mps 742 mmHg 56%
    11:00 +17°C° 0 mm 2 mps 742 mmHg 53%
    12:00 +18°C° 0 mm 2 mps 742 mmHg 51%
    13:00 +18°C° 0 mm 2 mps 741 mmHg 50%
    14:00 +18°C° 0 mm 2 mps 741 mmHg 50%
    15:00 +19°C° 0 mm 1 mps 741 mmHg 50%
    16:00 +19°C° 0 mm 1 mps 741 mmHg 50%
    17:00 +19°C° 0 mm 1 mps 741 mmHg 51%
    18:00 +19°C° 0 mm 1 mps 740 mmHg 52%
    19:00 +18°C° 0 mm 1 mps 740 mmHg 56%
    20:00 +15°C° 0 mm 1 mps 740 mmHg 60%
    21:00 +13°C° 0 mm 0 mps 739 mmHg 65%
    22:00 +13°C° 0 mm 1 mps 739 mmHg 65%
    23:00 +13°C° 0 mm 1 mps 739 mmHg 66%

    4 Junio, Jueves

    Tiempo Temperatura Precipitaciones Viento Presión Humedad
    00:00 +13°C° 0 mm 1 mps 739 mmHg 67%
    01:00 +12°C° 0 mm 0 mps 739 mmHg 67%
    02:00 +12°C° 0 mm 0 mps 738 mmHg 67%
    03:00 +12°C° 0 mm 0 mps 738 mmHg 67%
    04:00 +12°C° 0 mm 0 mps 738 mmHg 68%
    05:00 +13°C° 0 mm 0 mps 738 mmHg 70%
    06:00 +14°C° 0 mm 1 mps 738 mmHg 71%
    07:00 +15°C° 0 mm 1 mps 737 mmHg 67%
    08:00 +15°C° 0 mm 0 mps 737 mmHg 63%
    09:00 +17°C° 0 mm 0 mps 737 mmHg 59%
    10:00 +19°C° 0 mm 1 mps 737 mmHg 56%
    11:00 +20°C° 0 mm 1 mps 737 mmHg 54%
    12:00 +20°C° 0 mm 2 mps 736 mmHg 51%
    13:00 +20°C° 0.1 mm 2 mps 736 mmHg 50%
    14:00 +20°C° 0.1 mm 3 mps 736 mmHg 49%
    15:00 +20°C° 0.1 mm 4 mps 736 mmHg 48%
    16:00 +20°C° 0 mm 4 mps 736 mmHg 50%
    17:00 +19°C° 0 mm 4 mps 736 mmHg 52%
    18:00 +19°C° 0 mm 4 mps 736 mmHg 53%
    19:00 +17°C° 0 mm 3 mps 736 mmHg 60%
    20:00 +14°C° 0 mm 3 mps 736 mmHg 67%
    21:00 +12°C° 0 mm 3 mps 736 mmHg 74%
    22:00 +11°C° 0 mm 3 mps 737 mmHg 74%
    23:00 +10°C° 0 mm 3 mps 737 mmHg 74%

    5 Junio, Viernes

    Tiempo Temperatura Precipitaciones Viento Presión Humedad
    00:00 +9°C° 0 mm 3 mps 737 mmHg 75%
    01:00 +8°C° 0 mm 3 mps 737 mmHg 78%
    02:00 +7°C° 0 mm 3 mps 737 mmHg 82%
    03:00 +7°C° 0 mm 3 mps 737 mmHg 86%
    04:00 +7°C° 0 mm 3 mps 737 mmHg 84%
    05:00 +8°C° 0 mm 3 mps 737 mmHg 83%
    06:00 +8°C° 0 mm 3 mps 738 mmHg 81%
    07:00 +10°C° 0 mm 3 mps 738 mmHg 74%
    08:00 +11°C° 0 mm 3 mps 738 mmHg 66%
    09:00 +14°C° 0 mm 2 mps 738 mmHg 58%
    10:00 +15°C° 0 mm 2 mps 738 mmHg 54%
    11:00 +15°C° 0 mm 2 mps 738 mmHg 50%
    12:00 +16°C° 0 mm 2 mps 738 mmHg 46%
    13:00 +16°C° 0 mm 2 mps 738 mmHg 44%
    14:00 +17°C° 0 mm 2 mps 737 mmHg 43%
    15:00 +17°C° 0 mm 2 mps 737 mmHg 41%
    16:00 +17°C° 0 mm 2 mps 737 mmHg 42%
    17:00 +17°C° 0 mm 2 mps 737 mmHg 43%
    18:00 +17°C° 0 mm 2 mps 737 mmHg 44%
    19:00 +15°C° 0 mm 2 mps 737 mmHg 50%
    20:00 +13°C° 0 mm 3 mps 737 mmHg 56%
    21:00 +11°C° 0 mm 3 mps 737 mmHg 62%
    22:00 +10°C° 0.1 mm 2 mps 737 mmHg 68%
    23:00 +10°C° 0.1 mm 2 mps 737 mmHg 74%
    Mostrar más